CZ-6A DEB, 60760

Orbit data source: Space-Track

CZ-6A DEB, 60760 is space debris in LEO originally from a launch on Tue, 06 Aug 2024 UTC launched from the Taiyaun Space Center, China (TSC). Debris objects in space refer to the collection of defunct objects orbiting the Earth. Examples of debris include non-operational satellites, rocket bodies, and fragments generated from explosions, collisions, or faulty payload assembly.

Loading next visibility...
Identifier
60760, 2024-140EK
Orbit
LEO
Country
Flag of CNCN / PRC
Related business
Manufacturer
SAST
Mission
Spacecraft
Bus & Motor
Unknown
Mass
Unknown
Launch date (UTC)
2024-08-06 (2 years ago)
Launch vehicle
Unknown
Launch site
Taiyaun Space Center, China (TSC)
Object type
Payload
Rocket body
Debris
Shape & HBR
Unknown shape, 0.1 m
Radar Cross Section
Medium (>0.1 m² and <1 m²)

Expand to show TLE details & history
Last TLE update: 14 hours ago

TLE from 14 hours ago
0 CZ-6A DEB
1 60760U 24140EK  26171.28080029  .00001853  00000-0  26197-3 0  9991
2 60760  89.0884 275.8889 0167183 210.8110 148.3214 14.67483244 97691
Epoch: 2026-06-20T06:44Z
TLE epoch observation values (Epoch: 2026-06-20T06:44:21.145Z)
Latitude
0.00001°
Longitude
-93.69689°
Altitude
773.054 km
Speed
7.414 km/s
True Right ascension
18h 23m 33s
True Declination
0° 00' 00"
Sunlit
Object was in full shadow at epoch
Visualization orbit readout
Latitude
Unknown
Longitude
Unknown
Altitude
Unknown
Speed
Unknown
Apparent Right ascension
Unknown
Apparent Declination
Unknown
Sunlit
N/A
Visualization observer readout
Local Sidereal Time
07:12:37
Azimuth
Unknown
Elevation
Unknown
Doppler factor
Unknown
Orbital elements
Apogee altitude
783.762 km
Perigee altitude
548.23 km
Semi-major axis
7,044.133 km
Eccentricity
0.01672
Inclination
89.0884°
RAAN
275.8889°
Arg. of periapsis
210.811°
True anomaly
149.30984°
Mean anomaly
148.3214°
Eccentric anomaly
148.81736°
Mean motion
3.67115 °/min
Orbital period
98.06 mins
BSTAR
0.00026197
Loading maneuver chart data...
Computing Atmospheric mass density...
Loading historical data...
Loading historical data...
Loading historical data...
Loading historical data...
Loading historical data...
Loading historical data...
Loading historical data...

Documentation

Showing up to 5 results
|